Weather History for Friday Harbor, WA

Change the Weather History Date:

Sunday, June 30, 2013

  Actual Average Record
Temperature  
Mean Temperature 67 °F -  
Max Temperature 84 °F 65 °F 84 °F (2013)
Min Temperature 50 °F 46 °F 41 °F (2001)
Cooling Degree Days 2    
Growing Degree Days 17 (Base 50)    
Moisture  
Dew Point 57 °F    
Average Humidity 74    
Maximum Humidity 100    
Minimum Humidity 46    
Precipitation  
Precipitation 0.00 in - - ()
Sea Level Pressure  
Sea Level Pressure 29.97 in    
Wind  
Wind Speed 2 mph (North)    
Max Wind Speed 8 mph    
Max Gust Speed -    
Visibility 9 miles    
Events      
Averages and records for this station are not official NWS values.
T = Trace of Precipitation, MM = Missing Value Source: NWS Daily Summary

Daily Weather History Graph

Daily Weather History Graph

Search for Another Location

Airport:

Trip Planner

Search our weather history database for the weather conditions in past years. The results will help you decide how hot, cold, wet, or windy it might be!

Date:

Astronomy

Jun. 30, 2013 Rise Set
Actual Time 5:13 AM PDT 9:17 PM PDT
Civil Twilight 4:32 AM PDT 9:59 PM PDT
Nautical Twilight 3:33 AM PDT 10:57 PM PDT
Astronomical Twilight 1:46 AM PDT 12:42 AM PDT
Moon 12:40 AM PDT (6/30) 2:16 PM PDT (6/30)
Length of Visible Light 17h 27m
Length of Day
16h 03m
Last Quarter, 44% of the Moon is Illuminated
Jun 30
Last Quarter
Jul 8
New
Jul 15
First Quarter
Jul 22
Full
Jul 29
Last Quarter

Hourly Weather History & Observations

Time (PDT) Temp. Heat Index Dew Point Humidity Pressure Visibility Wind Dir Wind Speed Gust Speed Precip Events Conditions
12:53 AM 53.1 °F - 51.1 °F 93% 30.04 in 10.0 mi Calm Calm - N/A   Clear
1:53 AM 51.1 °F - 50.0 °F 96% 30.03 in 10.0 mi Calm Calm - N/A   Clear
2:53 AM 51.1 °F - 50.0 °F 96% 30.03 in 10.0 mi Calm Calm - N/A   Clear
3:35 AM 50.0 °F - 50.0 °F 100% 30.02 in 2.5 mi Calm Calm - N/A   Clear
3:45 AM 51.8 °F - 50.0 °F 94% 30.02 in 4.0 mi Calm Calm - N/A   Clear
3:53 AM 51.1 °F - 50.0 °F 96% 30.02 in 6.0 mi Calm Calm - N/A   Clear
4:53 AM 51.1 °F - 50.0 °F 96% 30.02 in 9.0 mi Calm Calm - N/A   Clear
5:53 AM 53.1 °F - 52.0 °F 96% 30.02 in 10.0 mi Calm Calm - N/A   Clear
6:53 AM 60.1 °F - 54.0 °F 80% 30.02 in 10.0 mi North 3.5 mph - N/A   Clear
7:53 AM 64.0 °F - 55.9 °F 75% 30.02 in 10.0 mi Calm Calm - N/A   Clear
8:53 AM 68.0 °F - 57.0 °F 68% 30.02 in 10.0 mi Calm Calm - N/A   Clear
9:53 AM 70.0 °F - 57.9 °F 65% 30.01 in 10.0 mi Calm Calm - N/A   Clear
10:53 AM 72.0 °F - 59.0 °F 64% 30.00 in 10.0 mi ESE 3.5 mph - N/A   Clear
11:53 AM 73.9 °F - 61.0 °F 64% 29.98 in 10.0 mi ESE 4.6 mph - N/A   Clear
12:53 PM 82.0 °F 83.4 °F 64.0 °F 54% 29.96 in 10.0 mi North 6.9 mph - N/A   Clear
1:53 PM 81.0 °F 82.5 °F 64.0 °F 56% 29.95 in 10.0 mi North 6.9 mph - N/A   Clear
2:53 PM 79.0 °F - 64.0 °F 60% 29.94 in 10.0 mi Variable 3.5 mph - N/A   Clear
3:53 PM 84.0 °F 84.9 °F 63.0 °F 49% 29.92 in 10.0 mi North 5.8 mph - N/A   Clear
4:53 PM 84.9 °F 85.4 °F 62.1 °F 46% 29.91 in 10.0 mi North 8.1 mph - N/A   Clear
5:53 PM 80.1 °F 81.7 °F 64.0 °F 58% 29.89 in 10.0 mi SE 3.5 mph - N/A   Clear
6:53 PM 78.1 °F - 62.1 °F 58% 29.88 in 10.0 mi SW 5.8 mph - N/A   Clear
7:53 PM 75.0 °F - 60.1 °F 60% 29.88 in 10.0 mi WSW 4.6 mph - N/A   Clear
8:53 PM 72.0 °F - 59.0 °F 64% 29.88 in 10.0 mi WSW 4.6 mph - N/A   Clear
9:53 PM 63.0 °F - 55.9 °F 78% 29.89 in 10.0 mi Calm Calm - N/A   Partly Cloudy
10:53 PM 57.0 °F - 52.0 °F 83% 29.90 in 10.0 mi Calm Calm - N/A   Partly Cloudy
11:53 PM 55.9 °F - 52.0 °F 87% 29.91 in 10.0 mi Calm Calm - N/A   Clear